1508104800.66,40763,14.63,75010.5,3.21,-24.77,-25.61,0,*7D
1508104801.85,40764,14.63,75010.0,3.21,-24.93,-25.65,0,*74
1508104803.1,40765,14.63,75010.5,3.21,-24.67,-25.45,0,*7C
1508104804.3,40766,14.63,75012.5,3.21,-24.61,-25.35,0,*7E
1508104805.52,40767,14.63,75012.5,3.25,-24.77,-25.45,0,*7B
1508104806.76,40768,14.63,75010.8,3.21,-24.83,-25.61,0,*7D
1508104807.98,40769,14.63,75010.0,3.21,-24.61,-25.45,0,*76
1508104809.21,40770,14.63,75008.5,3.21,-24.77,-25.45,0,*79
1508104810.42,40771,14.63,75010.5,3.21,-24.47,-25.09,0,*73
1508104811.64,40772,14.63,75006.8,3.25,-24.61,-25.45,0,*78
1508104812.85,40773,14.63,75008.5,3.21,-24.51,-25.35,0,*79
1508104814.05,40774,14.63,75012.5,3.21,-24.31,-24.97,0,*71
1508104815.26,40775,14.63,75010.0,3.25,-24.57,-25.39,0,*71
1508104816.51,40776,14.63,75006.8,3.25,-24.71,-25.45,0,*7D
1508104817.76,40777,14.63,75010.5,3.21,-24.67,-25.45,0,*7F
1508104818.96,40778,14.63,75006.8,3.25,-24.57,-25.39,0,*7C
1508104820.21,40779,14.63,75008.5,3.21,-24.67,-25.45,0,*71
1508104821.44,40780,14.63,75008.5,3.21,-24.83,-25.65,0,*7F
1508104822.69,40781,14.63,75010.8,3.25,-24.87,-25.71,0,*7B
1508104823.91,40782,14.63,75008.8,3.21,-24.97,-25.81,0,*72
1508104825.12,40783,14.63,75008.3,3.25,-24.77,-25.61,0,*77
1508104826.35,40784,14.63,75008.5,3.21,-24.97,-25.75,0,*7F
1508104827.55,40785,14.63,75012.0,3.21,-24.61,-25.35,0,*73
1508104828.74,40786,14.63,75010.0,3.21,-24.93,-25.65,0,*78
1508104829.96,40787,14.63,75008.8,3.21,-24.93,-25.75,0,*78
1508104831.19,40788,14.63,75012.3,3.19,-24.97,-25.65,0,*79
1508104832.44,40789,14.56,75008.5,3.19,-24.97,-25.75,0,*79
1508104833.66,40790,14.63,75010.8,3.19,-24.61,-25.35,0,*7C
1508104834.89,40791,14.63,75008.8,3.21,-24.83,-25.65,0,*7F
1508104836.13,40792,14.63,75010.8,3.21,-24.51,-25.29,0,*7B
1508104837.35,40793,14.63,75012.0,3.21,-24.61,-25.45,0,*73
1508104838.61,40794,14.63,75010.5,3.21,-24.83,-25.75,0,*7B
1508104839.84,40795,14.63,75008.5,3.19,-24.77,-25.65,0,*7B
1508104841.06,40796,14.63,75008.5,3.19,-24.61,-25.35,0,*7A
1508104842.33,40797,14.56,75008.0,3.19,-24.67,-25.45,0,*7A
1508104843.58,40798,14.63,75014.3,3.21,-24.67,-25.45,0,*7E
1508104844.81,40799,14.63,75014.8,3.21,-24.67,-25.35,0,*78
1508104846.04,40800,14.63,75010.8,3.19,-24.47,-25.09,0,*71
1508104847.3,40801,14.63,75014.0,3.19,-24.51,-25.29,0,*75
1508104848.53,40802,14.63,75014.3,3.19,-24.77,-25.61,0,*7E
1508104849.76,40803,14.63,75010.8,3.25,-24.31,-25.03,0,*76
1508104850.99,40804,14.63,75012.3,3.21,-24.83,-25.65,0,*7C
1508104852.23,40805,14.63,75012.5,3.21,-24.83,-25.61,0,*79
1508104853.44,40806,14.63,75012.8,3.21,-24.77,-25.49,0,*7B
1508104854.66,40807,14.63,75010.8,3.21,-24.61,-25.45,0,*71
1508104855.89,40808,14.63,75008.8,3.21,-24.51,-25.29,0,*77
1508104857.13,40809,14.63,75014.8,3.21,-24.67,-25.49,0,*75
1508104858.38,40810,14.63,75012.0,3.21,-24.83,-25.75,0,*78
1508104859.62,40811,14.63,75012.5,3.21,-24.83,-25.65,0,*78
1508104860.84,40812,14.63,75008.0,3.21,-24.97,-25.75,0,*7F
1508104862.09,40813,14.63,75014.3,3.19,-24.97,-25.81,0,*7E
1508104863.35,40814,14.63,75012.5,3.19,-24.83,-25.61,0,*72
1508104864.57,40815,14.63,75012.5,3.19,-24.61,-25.35,0,*7E
1508104865.82,40816,14.63,75012.8,3.19,-24.61,-25.29,0,*70
1508104867.03,40817,14.63,75012.8,3.21,-24.51,-25.19,0,*7A
1508104868.26,40818,14.63,75014.5,3.19,-24.51,-25.35,0,*70
1508104869.49,40819,14.63,75014.3,3.19,-24.47,-25.19,0,*78
1508104870.74,40820,14.63,75014.5,3.19,-24.51,-25.29,0,*76
1508104872.01,40821,14.63,75012.0,3.19,-23.99,-24.67,0,*7F
1508104873.21,40822,14.63,75008.8,3.21,-24.31,-24.93,0,*79
1508104874.45,40823,14.63,75012.5,3.21,-24.67,-25.49,0,*7D
1508104875.68,40824,14.63,75010.8,3.21,-24.61,-25.29,0,*7A
1508104876.91,40825,14.63,75014.5,3.21,-24.67,-25.49,0,*7B
1508104878.12,40826,14.63,75014.8,3.21,-24.77,-25.61,0,*73
1508104879.34,40827,14.63,75012.3,3.25,-24.87,-25.61,0,*79
1508104880.57,40828,14.63,75012.8,3.21,-24.67,-25.49,0,*76
1508104881.78,40829,14.63,75012.8,3.21,-24.77,-25.49,0,*76
1508104883.01,40830,14.63,75012.0,3.21,-24.77,-25.45,0,*72
1508104884.24,40831,14.63,75010.0,3.21,-24.67,-25.49,0,*7E
1508104885.47,40832,14.63,75012.5,3.21,-24.97,-25.75,0,*7D
1508104886.7,40833,14.63,75014.8,3.21,-24.67,-25.49,0,*7C
1508104887.91,40834,14.63,75006.8,3.21,-24.31,-24.93,0,*7E
1508104889.11,40835,14.63,75008.0,3.25,-24.51,-25.35,0,*70
1508104890.31,40836,14.63,75004.8,3.21,-24.51,-25.35,0,*77
1508104891.55,40837,14.63,75010.0,3.21,-24.51,-25.29,0,*7B
1508104892.78,40838,14.63,75008.3,3.21,-24.67,-25.49,0,*77
1508104894.04,40839,14.63,75008.8,3.25,-24.71,-25.45,0,*79
1508104895.27,40840,14.63,75014.3,3.25,-24.71,-25.39,0,*7C
1508104896.47,40841,14.63,75016.0,3.25,-24.61,-25.39,0,*7C
1508104897.67,40842,14.63,75008.3,3.21,-24.93,-25.65,0,*7F
1508104898.89,40843,14.63,75012.0,3.25,-24.57,-25.29,0,*7A
1508104900.08,40844,14.63,75012.5,3.21,-24.93,-25.65,0,*79
1508104901.32,40845,14.63,75010.8,3.21,-24.83,-25.65,0,*79
1508104902.55,40846,14.63,75012.0,3.21,-24.83,-25.61,0,*7E
1508104903.77,40847,14.56,75008.5,3.19,-24.93,-25.65,0,*71
1508104905.01,40848,14.56,75008.5,3.21,-24.83,-25.49,0,*7A
1508104906.26,40849,14.63,75008.8,3.21,-24.67,-25.45,0,*7D
1508104907.47,40850,14.63,75012.5,3.19,-24.93,-25.65,0,*77
1508104908.7,40851,14.63,75012.0,3.21,-24.67,-25.61,0,*72
1508104909.91,40852,14.63,75012.3,3.21,-24.77,-25.61,0,*70
1508104911.16,40853,14.56,75008.5,3.19,-24.93,-25.75,0,*75
1508104912.39,40854,14.63,75010.8,3.19,-24.77,-25.61,0,*7D
1508104913.62,40855,14.63,75008.8,3.21,-24.83,-25.61,0,*7C
1508104914.85,40856,14.63,75008.8,3.21,-24.77,-25.45,0,*72
1508104916.08,40857,14.63,75014.3,3.21,-24.83,-25.61,0,*7E
1508104917.32,40858,14.63,75012.5,3.21,-24.83,-25.65,0,*75
1508104918.55,40859,14.63,75010.8,3.21,-24.83,-25.61,0,*70
1508104919.81,40860,14.63,75008.5,3.19,-24.83,-25.65,0,*75
1508104921.04,40861,14.63,75008.3,3.17,-24.87,-25.65,0,*7E
1508104922.27,40862,14.56,75010.0,3.19,-24.77,-25.49,0,*72
1508104923.51,40863,14.63,75012.8,3.19,-24.51,-25.49,0,*77
1508104924.75,40864,14.63,75008.0,3.19,-24.67,-25.35,0,*7E
1508104926.01,40865,14.63,75012.3,3.19,-24.83,-25.65,0,*70
1508104927.28,40866,14.63,75010.8,3.19,-24.67,-25.45,0,*7B
1508104928.51,40867,14.63,75008.8,3.19,-24.77,-25.49,0,*77
1508104929.77,40868,14.63,75010.5,3.19,-24.83,-25.65,0,*7D
1508104931.01,40869,14.63,75014.8,3.19,-24.93,-25.75,0,*7C
1508104932.24,40870,14.63,75008.8,3.19,-24.47,-25.19,0,*77
1508104933.47,40871,14.63,75014.5,3.19,-24.77,-25.49,0,*70
1508104934.7,40872,14.63,75014.5,3.19,-24.77,-25.49,0,*73
1508104935.93,40873,14.56,75010.8,3.19,-24.77,-25.61,0,*78
1508104937.17,40874,14.56,75008.8,3.19,-24.77,-25.49,0,*75
1508104938.4,40875,14.56,75008.5,3.19,-24.77,-25.65,0,*7A
1508104939.67,40876,14.56,75010.0,3.19,-24.83,-25.45,0,*70
1508104940.89,40877,14.63,75012.5,3.19,-24.61,-25.35,0,*7A
1508104942.13,40878,14.63,75012.0,3.19,-24.77,-25.61,0,*73
1508104943.37,40879,14.63,75012.5,3.19,-24.67,-25.19,0,*7C
1508104944.58,40880,14.56,75010.3,3.21,-24.77,-25.61,0,*7F
1508104945.83,40881,14.63,75014.0,3.21,-24.67,-25.45,0,*79
1508104947.06,40882,14.63,75012.5,3.19,-24.77,-25.61,0,*76
1508104948.28,40883,14.63,75012.8,3.19,-24.93,-25.65,0,*79
1508104949.51,40884,14.56,75012.5,3.17,-24.67,-25.39,0,*72
1508104950.74,40885,14.63,75014.5,3.17,-24.71,-25.35,0,*78
1508104951.97,40886,14.63,75016.5,3.19,-24.77,-25.49,0,*78
1508104953.23,40887,14.63,75016.5,3.19,-24.67,-25.61,0,*72
1508104954.49,40888,14.63,75012.0,3.19,-24.83,-25.61,0,*77
1508104955.71,40889,14.63,75016.3,3.19,-24.35,-24.93,0,*77
1508104956.94,40890,14.63,75018.3,3.19,-24.77,-25.61,0,*75
1508104958.16,40891,14.63,75018.0,3.19,-24.93,-25.65,0,*7A
1508104959.41,40892,14.63,75018.5,3.19,-25.09,-25.75,0,*7A
1508104960.64,40893,14.63,75016.8,3.19,-24.77,-25.65,0,*72
1508104961.88,40894,14.63,75018.5,3.19,-24.97,-25.81,0,*71
1508104963.12,40895,14.63,75018.0,3.19,-24.77,-25.61,0,*70
1508104964.34,40896,14.63,75014.0,3.17,-24.97,-25.71,0,*72
1508104965.59,40897,14.63,75010.8,3.17,-24.11,-24.87,0,*75
1508104966.82,40898,14.56,75012.8,3.19,-24.47,-25.19,0,*71
1508104968.05,40899,14.56,75012.8,3.19,-24.61,-25.35,0,*7A
1508104969.31,40900,14.63,75018.5,3.19,-24.83,-25.61,0,*76
1508104970.54,40901,14.63,75016.3,3.19,-24.77,-25.49,0,*76
1508104971.77,40902,14.63,75018.0,3.19,-24.77,-25.49,0,*75
1508104972.99,40903,14.63,75014.3,3.21,-24.61,-25.45,0,*74
1508104974.22,40904,14.63,75018.0,3.19,-24.51,-25.35,0,*7C
1508104975.48,40905,14.63,75014.8,3.19,-24.67,-25.49,0,*73
1508104976.71,40906,14.63,75014.8,3.19,-24.77,-25.61,0,*7B
1508104977.94,40907,14.63,75018.0,3.19,-24.35,-25.09,0,*72
1508104979.17,40908,14.63,75018.5,3.19,-24.47,-25.19,0,*79
1508104980.39,40909,14.63,75016.5,3.19,-24.35,-24.93,0,*7E
1508104981.65,40910,14.63,75018.5,3.19,-24.83,-25.61,0,*77
1508104982.91,40911,14.63,75022.8,3.17,-24.83,-25.71,0,*79
1508104984.18,40912,14.56,75014.3,3.19,-24.67,-25.45,0,*79
1508104985.44,40913,14.63,75016.3,3.17,-24.67,-25.55,0,*77
1508104986.67,40914,14.63,75018.3,3.19,-24.51,-25.35,0,*7D
1508104987.92,40915,14.63,75018.0,3.19,-24.83,-25.65,0,*76
1508104989.17,40916,14.63,75016.5,3.19,-24.93,-25.75,0,*75
1508104990.41,40917,14.63,75018.3,3.19,-24.93,-25.75,0,*74
1508104991.66,40918,14.63,75016.8,3.19,-24.97,-25.75,0,*7F
1508104992.88,40919,14.63,75020.5,3.19,-24.93,-25.65,0,*7B
1508104994.1,40920,14.63,75018.0,3.19,-24.93,-25.65,0,*71
1508104995.31,40921,14.56,75014.5,3.19,-24.93,-25.65,0,*70
1508104996.54,40922,14.63,75016.0,3.17,-25.13,-25.97,0,*79
1508104997.74,40923,14.63,75018.8,3.17,-24.97,-25.91,0,*73
1508104998.97,40924,14.56,75014.5,3.17,-24.83,-25.65,0,*7A
1508105000.2,40925,14.63,75016.8,3.17,-24.83,-25.65,0,*7B
1508105001.43,40926,14.63,75016.3,3.17,-24.87,-25.65,0,*7C
1508105002.63,40927,14.56,75014.0,3.17,-24.97,-25.65,0,*7C
1508105003.86,40928,14.63,75014.3,3.17,-24.97,-25.71,0,*76
1508105005.07,40929,14.63,75016.5,3.15,-24.93,-25.87,0,*78
1508105006.29,40930,14.63,75016.0,3.17,-24.97,-25.71,0,*7F
1508105007.53,40931,14.63,75016.8,3.17,-24.83,-25.65,0,*7E
1508105008.79,40932,14.63,75014.0,3.17,-24.83,-25.71,0,*78
1508105009.99,40933,14.63,75018.5,3.17,-25.13,-25.87,0,*78
1508105011.23,40934,14.63,75014.3,3.17,-25.03,-25.81,0,*78
1508105012.47,40935,14.63,75014.3,3.17,-24.41,-25.13,0,*75
1508105013.69,40936,14.63,75016.0,3.17,-24.67,-25.35,0,*76
1508105014.92,40937,14.63,75014.5,3.19,-24.51,-25.35,0,*7C
1508105016.19,40938,14.63,75016.0,3.17,-24.71,-25.55,0,*79
1508105017.41,40939,14.56,75012.8,3.17,-24.87,-25.65,0,*72
1508105018.64,40940,14.63,75012.3,3.17,-24.41,-25.13,0,*77
1508105019.91,40941,14.63,75012.3,3.17,-24.71,-25.55,0,*77
1508105021.16,40942,14.63,75014.8,3.17,-24.87,-25.71,0,*7B
1508105022.39,40943,14.56,75012.5,3.17,-24.67,-25.39,0,*78
1508105023.65,40944,14.56,75012.8,3.17,-24.87,-25.71,0,*7D
1508105024.88,40945,14.63,75016.0,3.17,-24.67,-25.49,0,*79
1508105026.14,40946,14.56,75012.8,3.17,-24.71,-25.55,0,*70
1508105027.37,40947,14.56,75012.5,3.19,-24.35,-25.09,0,*76
1508105028.66,40948,14.63,75012.8,3.15,-24.71,-25.55,0,*7C
1508105029.91,40949,14.63,75016.3,3.15,-24.77,-25.55,0,*7B
1508105031.17,40950,14.63,75016.8,3.17,-24.83,-25.55,0,*7A
1508105032.38,40951,14.63,75018.5,3.17,-24.51,-25.35,0,*72
1508105033.59,40952,14.63,75016.3,3.17,-24.51,-25.35,0,*71
1508105034.82,40953,14.63,75014.5,3.17,-24.67,-25.49,0,*7E
1508105036.02,40954,14.63,75010.3,3.17,-24.57,-25.35,0,*71
1508105037.27,40955,14.56,75008.3,3.19,-24.47,-25.29,0,*72
1508105038.48,40956,14.63,75016.8,3.17,-24.61,-25.49,0,*7D
1508105039.71,40957,14.63,75018.3,3.17,-24.87,-25.65,0,*7A
1508105040.97,40958,14.63,75016.3,3.17,-24.71,-25.55,0,*7F
1508105042.2,40959,14.63,75012.3,3.17,-24.67,-25.39,0,*73
1508105043.43,40960,14.63,75014.3,3.17,-24.97,-25.71,0,*7A
1508105044.69,40961,14.63,75014.5,3.17,-24.71,-25.55,0,*75
1508105045.92,40962,14.63,75014.3,3.19,-24.35,-25.19,0,*70
1508105047.13,40963,14.63,75018.0,3.17,-24.35,-25.13,0,*75
1508105048.33,40964,14.63,75010.5,3.17,-24.57,-25.35,0,*72
1508105049.55,40965,14.56,75012.8,3.17,-24.87,-25.65,0,*7B
1508105050.78,40966,14.56,75012.3,3.17,-24.67,-25.39,0,*7F
1508105052.01,40967,14.63,75016.0,3.17,-24.41,-25.23,0,*71
1508105053.25,40968,14.56,75012.5,3.17,-24.71,-25.39,0,*76
1508105054.48,40969,14.56,75012.3,3.17,-24.83,-25.65,0,*73
1508105055.71,40970,14.56,75014.5,3.17,-24.41,-25.23,0,*77
1508105056.94,40971,14.63,75016.0,3.17,-24.83,-25.65,0,*7A
1508105058.22,40972,14.56,75012.8,3.19,-24.67,-25.45,0,*7F
1508105059.46,40973,14.63,75016.3,3.19,-24.77,-25.45,0,*7F
1508105060.69,40974,14.63,75012.8,3.19,-24.51,-25.35,0,*7B
1508105061.95,40975,14.56,75012.0,3.19,-24.51,-25.29,0,*77
1508105063.18,40976,14.56,75012.0,3.17,-24.67,-25.39,0,*7E
1508105064.43,40977,14.63,75012.3,3.19,-24.35,-25.29,0,*77
1508105065.66,40978,14.63,75018.3,3.19,-24.77,-25.49,0,*78
1508105066.89,40979,14.63,75020.0,3.17,-24.67,-25.35,0,*7D
1508105068.12,40980,14.56,75012.5,3.19,-24.35,-25.09,0,*7D
1508105069.37,40981,14.56,75012.0,3.19,-24.67,-25.49,0,*7F
1508105070.6,40982,14.63,75016.3,3.19,-24.77,-25.61,0,*77
1508105071.86,40983,14.56,75016.5,3.17,-24.87,-25.71,0,*76
1508105073.06,40984,14.56,75014.8,3.17,-24.57,-25.35,0,*7C
1508105074.31,40985,14.63,75018.3,3.19,-24.77,-25.45,0,*76
1508105075.54,40986,14.63,75016.5,3.19,-24.47,-25.09,0,*7E
1508105076.77,40987,14.63,75016.3,3.19,-24.61,-25.35,0,*74
1508105078.02,40988,14.56,75012.3,3.19,-24.67,-25.49,0,*76
1508105079.28,40989,14.56,75012.5,3.19,-24.83,-25.61,0,*77
1508105080.51,40990,14.63,75018.5,3.19,-24.31,-24.97,0,*7E
1508105081.74,40991,14.56,75018.3,3.17,-24.67,-25.49,0,*70
1508105083.0,40992,14.63,75022.5,3.19,-24.83,-25.61,0,*7D
1508105084.25,40993,14.56,75016.5,3.19,-24.51,-25.29,0,*7F
1508105085.48,40994,14.56,75018.3,3.19,-24.77,-25.65,0,*74
1508105086.74,40995,14.63,75018.3,3.19,-24.83,-25.65,0,*7E
1508105088.01,40996,14.56,75018.8,3.19,-24.67,-25.45,0,*75
1508105089.24,40997,14.56,75018.8,3.17,-24.83,-25.49,0,*7C
1508105090.5,40998,14.63,75016.0,3.17,-24.87,-25.55,0,*7A
1508105091.73,40999,14.63,75020.5,3.17,-24.41,-25.23,0,*70
1508105092.98,41000,14.56,75016.3,3.19,-24.67,-25.49,0,*7E
1508105094.22,41001,14.63,75020.5,3.17,-24.71,-25.49,0,*76
1508105095.45,41002,14.56,75016.0,3.19,-24.77,-25.49,0,*7D
1508105096.71,41003,14.63,75020.8,3.17,-24.83,-25.55,0,*74
1508105097.94,41004,14.63,75016.5,3.17,-24.87,-25.65,0,*74
1508105099.17,41005,14.63,75022.3,3.19,-24.77,-25.61,0,*70
1508105100.44,41006,14.56,75016.5,3.17,-24.71,-25.55,0,*7C
1508105101.67,41007,14.56,75016.8,3.17,-24.67,-25.39,0,*70
1508105102.91,41008,14.63,75022.3,3.19,-24.77,-25.45,0,*7B
1508105104.15,41009,14.63,75024.3,3.19,-24.77,-25.49,0,*76
1508105105.38,41010,14.63,75020.8,3.17,-24.83,-25.65,0,*75
1508105106.62,41011,14.63,75020.3,3.17,-24.71,-25.49,0,*77
1508105107.86,41012,14.63,75016.3,3.17,-24.71,-25.49,0,*74
1508105109.09,41013,14.56,75014.8,3.19,-24.77,-25.49,0,*7D
1508105110.33,41014,14.63,75018.0,3.17,-24.71,-25.39,0,*75
1508105111.56,41015,14.63,75016.8,3.19,-24.61,-25.35,0,*77
1508105112.78,41016,14.56,75018.8,3.19,-24.61,-25.19,0,*7A
1508105114.03,41017,14.63,75016.0,3.19,-24.35,-25.29,0,*79
1508105115.24,41018,14.63,75016.8,3.17,-24.57,-25.39,0,*7D
1508105116.49,41019,14.63,75018.5,3.19,-24.83,-25.61,0,*76
1508105117.72,41020,14.63,75014.0,3.19,-24.47,-25.19,0,*7B
1508105118.98,41021,14.63,75016.5,3.19,-24.83,-25.65,0,*79
1508105120.24,41022,14.63,75018.3,3.19,-24.83,-25.61,0,*7E
1508105121.48,41023,14.63,75014.8,3.17,-24.71,-25.65,0,*78
1508105122.7,41024,14.63,75018.8,3.19,-24.61,-25.35,0,*75
1508105123.96,41025,14.63,75016.8,3.17,-24.83,-25.55,0,*70
1508105125.22,41026,14.63,75016.5,3.17,-24.71,-25.55,0,*7E
1508105126.46,41027,14.63,75016.0,3.17,-24.83,-25.65,0,*71
1508105127.71,41028,14.63,75020.0,3.17,-24.87,-25.55,0,*79
1508105128.97,41029,14.63,75020.8,3.19,-24.83,-25.65,0,*71
1508105130.22,41030,14.56,75016.3,3.17,-25.03,-25.81,0,*74
1508105131.44,41031,14.63,75016.8,3.17,-24.67,-25.39,0,*75
1508105132.7,41032,14.63,75022.3,3.19,-24.67,-25.49,0,*7F
1508105133.92,41033,14.63,75020.3,3.17,-24.61,-25.45,0,*7A
1508105135.15,41034,14.56,75016.5,3.17,-24.67,-25.39,0,*70
1508105136.38,41035,14.63,75020.0,3.17,-24.87,-25.65,0,*76
1508105137.61,41036,14.56,75018.8,3.17,-24.67,-25.39,0,*72
1508105138.81,41037,14.56,75020.0,3.17,-24.51,-25.35,0,*7A
1508105140.04,41038,14.63,75022.3,3.17,-24.67,-25.39,0,*7C
1508105141.3,41039,14.56,75022.0,3.19,-24.67,-25.49,0,*74
1508105142.55,41040,14.63,75022.8,3.17,-24.83,-25.55,0,*73
1508105143.75,41041,14.63,75022.5,3.17,-24.57,-25.23,0,*7A
1508105145.02,41042,14.56,75020.8,3.17,-24.71,-25.55,0,*7C
1508105146.22,41043,14.63,75022.3,3.17,-24.57,-25.35,0,*7F
1508105147.45,41044,14.56,75020.5,3.17,-24.41,-25.23,0,*78
1508105148.65,41045,14.63,75022.8,3.17,-24.57,-25.39,0,*75
1508105149.86,41046,14.63,75024.3,3.17,-24.57,-25.35,0,*7A
1508105151.08,41047,14.56,75020.0,3.17,-24.67,-25.35,0,*78
1508105152.31,41048,14.56,75022.3,3.19,-24.35,-25.19,0,*70
1508105153.56,41049,14.56,75020.5,3.19,-24.51,-25.29,0,*70
1508105154.81,41050,14.63,75020.3,3.19,-24.67,-25.35,0,*70
1508105156.02,41051,14.63,75020.8,3.17,-24.51,-25.23,0,*7D
1508105157.22,41052,14.63,75024.8,3.17,-24.57,-25.39,0,*73
1508105158.42,41053,14.56,75026.3,3.17,-24.51,-25.23,0,*7F
1508105159.63,41054,14.63,75024.0,3.17,-24.57,-25.35,0,*79
1508105160.86,41055,14.63,75022.3,3.19,-24.35,-25.09,0,*7D
1508105162.09,41056,14.56,75016.5,3.17,-24.67,-25.49,0,*73
1508105163.31,41057,14.63,75018.5,3.19,-24.61,-25.35,0,*71
1508105164.56,41058,14.56,75018.0,3.19,-24.67,-25.35,0,*78
1508105165.76,41059,14.63,75018.5,3.17,-24.61,-25.35,0,*71
1508105167.02,41060,14.63,75018.3,3.19,-24.47,-25.29,0,*7C
1508105168.24,41061,14.63,75014.5,3.19,-24.61,-25.35,0,*74
1508105169.47,41062,14.56,75012.8,3.19,-24.61,-25.49,0,*7C
1508105170.7,41063,14.56,75012.8,3.17,-24.67,-25.39,0,*72
1508105171.96,41064,14.56,75014.8,3.19,-24.51,-25.29,0,*7F
1508105173.19,41065,14.63,75022.3,3.19,-24.77,-25.49,0,*7C
1508105174.43,41066,14.56,75024.5,3.17,-24.71,-25.49,0,*77
1508105175.65,41067,14.56,75020.3,3.19,-24.35,-24.97,0,*7A
1508105176.91,41068,14.63,75016.5,3.17,-24.25,-24.87,0,*7B
1508105178.14,41069,14.56,75016.0,3.19,-24.61,-25.35,0,*7C
1508105179.39,41070,14.56,75016.8,3.19,-24.83,-25.61,0,*79
1508105180.66,41071,14.63,75016.0,3.19,-24.15,-24.83,0,*7A
1508105181.89,41072,14.56,75016.8,3.19,-24.47,-25.19,0,*7C
1508105183.12,41073,14.63,75020.3,3.19,-24.51,-25.35,0,*74
1508105184.37,41074,14.63,75018.8,3.19,-24.61,-25.45,0,*77
1508105185.64,41075,14.56,75018.3,3.19,-24.67,-25.45,0,*70
1508105186.87,41076,14.56,75018.3,3.19,-24.61,-25.35,0,*72
1508105188.12,41077,14.63,75022.8,3.19,-24.67,-25.49,0,*7E
1508105189.33,41078,14.63,75020.8,3.17,-24.51,-25.35,0,*71
1508105190.55,41079,14.63,75022.8,3.19,-24.35,-24.97,0,*75
1508105191.8,41080,14.56,75016.3,3.19,-24.61,-25.45,0,*7C
1508105193.07,41081,14.56,75020.3,3.19,-24.67,-25.45,0,*7B
1508105194.29,41082,14.63,75020.5,3.19,-24.93,-25.65,0,*71
1508105195.54,41083,14.56,75016.3,3.19,-24.97,-25.75,0,*75
1508105196.8,41084,14.63,75022.0,3.19,-24.83,-25.49,0,*78
1508105198.02,41085,14.56,75018.3,3.19,-24.93,-25.61,0,*72
1508105199.29,41086,14.56,75020.3,3.19,-24.67,-25.45,0,*7C
1508105200.55,41087,14.63,75018.8,3.19,-24.51,-25.29,0,*72
1508105201.76,41088,14.56,75018.3,3.19,-24.93,-25.65,0,*7B
1508105203.01,41089,14.56,75018.3,3.19,-24.97,-25.75,0,*7F
1508105204.26,41090,14.63,75022.3,3.19,-24.97,-25.75,0,*77
1508105205.46,41091,14.56,75018.3,3.17,-24.61,-25.35,0,*75
1508105206.71,41092,14.56,75022.5,3.19,-24.67,-25.35,0,*7E
1508105207.95,41093,14.56,75022.8,3.17,-24.71,-25.49,0,*7D
1508105209.21,41094,14.56,75020.3,3.19,-24.83,-25.65,0,*77
1508105210.44,41095,14.63,75024.5,3.19,-24.77,-25.65,0,*7D
1508105211.67,41096,14.63,75026.5,3.19,-24.51,-25.09,0,*70
1508105212.88,41097,14.63,75024.8,3.17,-24.47,-25.19,0,*79
1508105214.15,41098,14.63,75022.3,3.19,-24.67,-25.45,0,*73
1508105215.4,41099,14.63,75020.8,3.19,-24.67,-25.49,0,*7E
1508105216.66,41100,14.56,75020.5,3.19,-24.83,-25.49,0,*75
1508105217.89,41101,14.63,75022.3,3.17,-24.87,-25.65,0,*70
1508105219.12,41102,14.56,75022.0,3.17,-24.67,-25.39,0,*74
1508105220.34,41103,14.63,75022.3,3.17,-24.97,-25.71,0,*76
1508105221.6,41104,14.56,75018.8,3.19,-24.83,-25.61,0,*7B
1508105222.83,41105,14.56,75020.8,3.19,-24.61,-25.39,0,*7B
1508105224.1,41106,14.56,75018.8,3.19,-24.67,-25.45,0,*75
1508105225.31,41107,14.56,75016.5,3.17,-24.51,-25.23,0,*7F
1508105226.55,41108,14.56,75020.5,3.19,-24.67,-25.35,0,*7C
1508105227.79,41109,14.56,75018.3,3.17,-24.67,-25.49,0,*78
1508105229.01,41110,14.56,75018.5,3.17,-24.97,-25.71,0,*74
1508105230.24,41111,14.56,75022.5,3.19,-24.77,-25.65,0,*70
1508105231.51,41112,14.56,75020.3,3.19,-24.67,-25.45,0,*70
1508105232.77,41113,14.56,75022.5,3.19,-24.51,-25.29,0,*7E
1508105234.0,41114,14.63,75022.8,3.19,-24.47,-25.19,0,*7D
1508105235.23,41115,14.56,75016.5,3.19,-24.35,-25.09,0,*78
1508105236.45,41116,14.56,75020.8,3.19,-24.61,-25.35,0,*75
1508105237.7,41117,14.56,75018.8,3.17,-24.71,-25.49,0,*70
1508105238.93,41118,14.56,75020.0,3.17,-24.83,-25.65,0,*7C
1508105240.19,41119,14.56,75024.5,3.17,-24.83,-25.55,0,*7E
1508105241.44,41120,14.63,75022.3,3.19,-24.77,-25.45,0,*70
1508105242.67,41121,14.56,75018.0,3.17,-24.67,-25.49,0,*72
1508105243.87,41122,14.56,75016.5,3.17,-24.57,-25.23,0,*7E
1508105245.1,41123,14.56,75020.0,3.17,-24.71,-25.39,0,*70
1508105246.36,41124,14.56,75022.3,3.17,-24.83,-25.71,0,*76
1508105247.6,41125,14.56,75020.8,3.19,-24.77,-25.49,0,*79
1508105248.83,41126,14.56,75020.8,3.17,-24.67,-25.49,0,*75
1508105250.09,41127,14.56,75022.3,3.17,-24.71,-25.55,0,*7E
1508105251.35,41128,14.63,75020.5,3.17,-24.83,-25.55,0,*7C
1508105252.59,41129,14.56,75022.0,3.17,-24.71,-25.49,0,*7D
1508105253.79,41130,14.56,75020.5,3.17,-24.57,-25.35,0,*7A
1508105255.04,41131,14.63,75020.8,3.17,-24.71,-25.49,0,*74
1508105256.29,41132,14.56,75018.3,3.17,-24.83,-25.55,0,*77
1508105257.53,41133,14.56,75020.5,3.17,-24.83,-25.65,0,*75
1508105258.76,41134,14.63,75022.3,3.19,-24.77,-25.49,0,*79
1508105259.99,41135,14.63,75020.0,3.19,-24.77,-25.61,0,*72
1508105261.24,41136,14.63,75022.8,3.19,-24.77,-25.45,0,*77
1508105262.47,41137,14.56,75020.3,3.17,-24.87,-25.65,0,*75
1508105263.72,41138,14.56,75020.5,3.17,-24.87,-25.71,0,*7F
1508105264.96,41139,14.56,75018.8,3.17,-24.71,-25.49,0,*7C
1508105266.19,41140,14.63,75020.5,3.19,-24.61,-25.49,0,*7D
1508105267.42,41141,14.56,75018.8,3.17,-24.97,-25.71,0,*70
1508105268.65,41142,14.63,75022.3,3.17,-24.87,-25.65,0,*77
1508105269.88,41143,14.56,75016.3,3.17,-24.67,-25.49,0,*76
1508105271.1,41144,14.56,75020.0,3.19,-24.93,-25.65,0,*7A
1508105272.33,41145,14.63,75020.8,3.17,-24.97,-25.71,0,*74
1508105273.59,41146,14.63,75020.5,3.17,-24.83,-25.55,0,*74
1508105274.85,41147,14.56,75018.0,3.17,-24.83,-25.55,0,*75
1508105276.07,41148,14.63,75022.8,3.17,-24.67,-25.39,0,*7A
1508105277.3,41149,14.63,75022.8,3.17,-24.67,-25.49,0,*7C
1508105278.56,41150,14.56,75020.3,3.17,-24.83,-25.55,0,*73
1508105279.79,41151,14.56,75020.5,3.17,-24.41,-25.13,0,*7E
1508105281.0,41152,14.56,75020.5,3.17,-24.35,-24.97,0,*73
1508105282.25,41153,14.56,75018.0,3.17,-24.21,-24.87,0,*76
1508105283.48,41154,14.56,75016.5,3.17,-24.35,-25.03,0,*79
1508105284.71,41155,14.56,75018.3,3.17,-24.67,-25.39,0,*76
1508105285.96,41156,14.63,75018.5,3.17,-24.87,-25.55,0,*71
1508105287.18,41157,14.56,75018.8,3.19,-24.93,-25.61,0,*7C
1508105288.44,41158,14.63,75018.8,3.19,-24.83,-25.61,0,*72
1508105289.65,41159,14.56,75016.8,3.17,-24.51,-25.35,0,*73
1508105290.89,41160,14.56,75022.5,3.17,-24.71,-25.49,0,*70
1508105292.12,41161,14.56,75016.0,3.19,-24.51,-25.19,0,*78
1508105293.35,41162,14.56,75020.8,3.17,-24.41,-25.13,0,*7E
1508105294.56,41163,14.56,75016.5,3.17,-24.51,-25.13,0,*7E
1508105295.8,41164,14.63,75022.8,3.17,-24.71,-25.49,0,*74
1508105297.0,41165,14.63,75020.0,3.17,-24.57,-25.35,0,*7A
1508105298.23,41166,14.56,75020.3,3.17,-24.51,-25.03,0,*7A
1508105299.48,41167,14.63,75022.3,3.19,-24.77,-25.45,0,*73
1508105300.71,41168,14.56,75016.3,3.17,-24.67,-25.39,0,*78
1508105301.96,41169,14.63,75020.3,3.19,-24.67,-25.49,0,*70